Regional Weather Roundup
Issued by NWS

Home | Current Version | Previous Version | Text Only | Print | Product List | Glossary Off
Versions: 1 2 3 4 5 6 7 8 9 10 11 12 13 14 15 16 17 18 19 20 21 22 23 24 25 26 27 28 29 30 31 32 33 34 35 36 37 38 39 40 41 42 43 44 45 46 47 48 49 50

000
ASUS45 KABQ 202201
RWRNM
WEATHER ROUNDUP FOR NEW MEXICO
NATIONAL WEATHER SERVICE ALBUQUERQUE NM
400 PM MDT MON APR 20 2015

NOTE: "FAIR" MEANS FEW OR NO CLOUDS BELOW 12,000 FEET AGL WITH NO
       SIGNIFICANT WEATHER OR OBSTRUCTIONS TO VISION.

      THIS PRODUCT IS RELEASED AS TWO VERSIONS.  ONE VERSION NEAR
      THE TOP OF THE HOUR CONTAINING PRELIMINARY DATA FROM ALBUQUERQUE
      AND OTHER STATIONS.  A FINAL VERSION WITH ADDITIONAL DATA IS
      ISSUED ABOUT 10 MINUTES AFTER THE HOUR.

NMZ501-503-504-510>518-202300-
NORTHWEST PLATEAU/NORTHCENTRAL MOUNTAINS

CITY           SKY/WX    TMP DP  RH WIND       PRES   REMARKS
FARMINGTON     SUNNY     68  16  13 NW18G26   29.87F
SANTA FE       PTSUNNY   63  22  20 SW20G33   29.90F
TAOS           CLOUDY    54  28  37 N23G35    29.94R
ANGEL FIRE     CLOUDY    43  32  64 N21G31    29.97R

$$
NMZ402-403-502-505>509-202300-
WESTCENTRAL MOUNTAINS/SOUTHWEST MOUNTAINS

CITY           SKY/WX    TMP DP  RH WIND       PRES   REMARKS
GALLUP         CLOUDY    64  17  16 N20G29    29.97F
GRANTS         PTSUNNY   66  18  15 NW20G26   29.96F
SILVER CITY      N/A     73  14  10 W12G33    29.93F

$$
NMZ407-409-411-412-202300-
SOUTHERN DESERTS

CITY           SKY/WX    TMP DP  RH WIND       PRES   REMARKS
DEMING         MOSUNNY   77  21  12 W12       29.86F
ALAMOGORDO     MOSUNNY   77  27  15 S6        29.86F
T OR C         CLOUDY    70  24  17 NE16G22   29.89R

$$
NMZ519>523-202300-
CENTRAL VALLEYS/CENTRAL HIGHLANDS

CITY           SKY/WX    TMP DP  RH WIND       PRES   REMARKS
ALBUQUERQUE    PTSUNNY   68  24  19 W9        29.91F
DOUBLE EAGLE   PTSUNNY   64  25  22 W23G29    29.93F
MORIARTY ARPT  FAIR      66  18  16 W18G25    29.95F
CLINES CORNERS PTSUNNY   57  20  23 W23G37    29.95R
BELEN          FAIR      69  21  16 N5G12     29.91R
SOCORRO        NOT AVBL

$$
NMZ524>526-539-540-202300-
SOUTHCENTRAL MOUNTAINS

CITY           SKY/WX    TMP DP  RH WIND       PRES   REMARKS
RUIDOSO        NOT AVBL

$$
NMZ527>531-202300-
NORTHEAST HIGHLANDS/NORTHEAST PLAINS

CITY           SKY/WX    TMP DP  RH WIND       PRES   REMARKS
LAS VEGAS      PTSUNNY   51  30  44 W20G39    29.93R
RATON          TSTM      50  37  61 SW10      29.91R
CLAYTON        PTSUNNY   59  37  44 E7        29.87F

$$
NMZ532>537-202300-
EASTCENTRAL PLAINS

CITY           SKY/WX    TMP DP  RH WIND       PRES   REMARKS
TUCUMCARI      SUNNY     73  32  22 S15       29.81F
CANNON AFB     NOT AVBL
CLOVIS AIRPORT SUNNY     70  37  30 S21G28    29.88F

$$
NMZ028-029-538-202300-
SOUTHEAST PLAINS

CITY           SKY/WX    TMP DP  RH WIND       PRES   REMARKS
ROSWELL        SUNNY     72  36  26 S20G26    29.87F
ARTESIA        SUNNY     72  37  28 SE15G21   29.89F
CARLSBAD       SUNNY     72  36  26 SE14G22   29.88F
HOBBS          SUNNY     68  36  30 SE14      29.93F


$$


USA.gov is the U.S. government's official web portal to all federal, state and local government web resources and services.